RH
40 42 40 38 43 46 46 49 51 59 72 78 77 77 84 95 100 101 101 98 98 102 97 85 82 82 76 63 50 43 44 54 72 85 86 86 87 82 68 50 40 33 29 33 36 38 40 40 40 39 38 38 38 40 44 47 48 49 50 51 52 52 52 51 51 50 49 49 50 52 54 56 58 60
34 37 36 35 40 43 43 42 40 52 70 75 72 70 74 86 98 102 101 99 101 101 91 82 84 84 72 52 39 36 37 43 56 68 77 83 84 77 62 49 42 33 28 31 32 32 33 33 34 36 40 43 44 47 51 52 51 51 54 59 62 63 61 58 57 56 57 57 58 59 60 61 60 59
35 36 34 30 36 43 42 38 38 50 61 59 55 57 64 82 98 102 100 100 103 97 85 84 88 84 66 43 31 32 32 33 41 52 63 70 70 64 55 49 45 35 29 32 34 35 36 38 40 43 47 50 51 54 56 56 56 57 60 66 73 77 74 68 62 58 57 57 57 58 59 60 61 61
39 36 33 32 37 42 40 38 42 50 51 46 45 52 65 83 97 101 101 104 104 92 83 86 89 80 59 37 29 31 30 30 34 41 48 51 51 50 48 47 46 38 32 32 35 37 41 44 45 46 49 51 54 57 59 62 63 64 66 72 80 86 85 78 71 65 60 57 56 56 57 58 61 63
45 39 37 39 43 45 41 40 48 52 48 42 40 50 67 82 91 97 101 103 100 89 84 86 84 72 50 33 28 30 32 32 34 38 41 41 41 42 42 42 42 39 35 33 34 36 40 43 43 44 47 51 54 57 60 65 68 70 73 78 87 92 92 87 80 73 67 61 57 55 55 56 59 61
52 44 43 47 48 49 45 45 57 62 52 41 36 44 64 79 87 93 95 94 93 89 84 82 79 65 44 31 29 30 34 35 37 40 41 40 40 40 39 39 39 38 37 36 37 38 40 41 41 44 48 52 55 57 60 63 67 72 77 84 93 98 98 95 88 80 73 67 61 59 60 60 61 62
53 48 52 55 55 56 52 52 67 73 58 41 34 41 60 78 85 85 81 79 82 82 80 81 78 61 41 32 30 30 33 36 37 40 40 40 40 38 38 40 39 38 37 38 41 42 42 42 43 45 49 54 57 59 60 62 65 70 78 87 97 102 103 101 94 85 78 73 69 65 65 65 65 64
49 51 58 62 64 66 61 57 73 83 67 45 35 38 56 75 78 68 58 58 66 72 75 80 76 59 42 36 33 31 32 35 37 41 43 43 43 42 42 43 43 43 42 40 41 42 44 45 47 50 54 57 59 60 62 64 67 73 82 93 101 103 104 104 98 88 81 79 77 74 72 72 71 70
51 54 59 65 70 73 67 61 73 84 71 51 40 38 53 71 67 50 40 42 52 63 70 75 72 58 44 41 40 36 34 36 39 43 45 47 49 49 50 52 54 55 54 51 48 48 51 54 55 58 60 61 62 63 64 68 70 76 87 97 102 102 102 102 97 90 85 84 83 83 81 80 79 78
59 62 65 70 72 71 68 63 67 72 66 57 51 46 54 65 59 44 36 35 41 54 65 72 69 58 47 46 48 44 40 40 43 46 49 50 52 53 56 59 61 61 62 63 63 62 62 63 65 67 69 69 68 68 69 72 76 83 93 100 101 101 102 101 97 91 89 88 89 90 87 84 84 82
73 75 73 72 70 67 67 67 67 66 62 62 63 59 60 62 56 47 39 34 35 45 60 71 70 60 54 54 55 53 50 49 49 51 53 54 56 59 62 64 66 67 69 74 79 78 74 71 71 73 75 76 75 73 75 79 85 91 97 100 101 101 101 101 96 91 89 90 93 92 86 82 83 84
84 80 74 70 69 67 65 68 71 72 71 72 72 70 68 64 59 52 44 38 36 40 56 71 72 65 62 62 62 61 60 59 58 58 59 59 63 67 69 73 77 78 81 87 91 92 88 82 79 79 81 81 79 79 82 88 96 100 101 103 104 102 101 100 95 90 89 91 94 92 84 79 81 84
87 81 76 73 74 73 71 72 79 86 88 87 82 77 72 65 59 53 46 42 41 47 63 76 76 72 71 70 69 68 69 70 70 70 69 69 70 73 79 84 87 88 91 94 96 98 96 90 85 84 84 84 86 89 92 96 102 104 103 105 105 102 102 100 93 89 90 93 96 92 85 80 79 82
85 80 77 76 78 80 80 81 85 87 87 84 77 70 63 58 54 50 47 48 53 63 75 81 80 78 78 77 77 77 78 81 84 85 84 83 82 83 88 93 95 96 98 99 100 102 99 92 88 88 89 90 93 97 99 101 104 104 101 103 105 103 102 97 90 87 89 93 96 93 87 84 80 80
78 73 72 74 76 76 75 74 73 72 71 69 65 61 58 56 54 52 53 57 64 73 79 80 80 79 80 82 83 84 86 90 95 98 98 98 97 96 97 99 100 102 104 103 103 102 98 92 91 92 92 95 98 99 99 98 101 104 103 102 103 103 100 93 88 87 88 90 94 93 89 87 85 85
73 71 73 75 74 69 63 60 59 59 60 60 61 63 64 63 60 59 61 66 73 79 82 81 81 81 82 85 88 90 94 99 105 107 105 104 103 102 103 104 105 108 107 104 102 101 96 92 93 93 92 93 94 91 90 92 98 104 104 102 102 101 95 89 86 87 87 89 93 94 94 93 90 91
70 71 75 74 67 60 54 48 47 48 47 47 51 58 63 66 67 67 69 72 76 79 80 81 83 85 86 88 90 93 97 104 109 109 107 105 104 105 107 107 109 111 106 99 95 92 91 92 95 95 92 88 84 82 87 95 101 103 102 101 101 96 89 85 87 89 91 93 94 95 97 98 96 98
73 71 71 65 56 50 46 42 42 42 40 40 44 50 57 62 65 67 68 68 69 70 72 75 79 82 84 86 89 93 98 105 107 107 107 106 103 105 107 108 108 106 96 88 84 84 85 87 88 87 82 77 77 84 95 102 103 101 101 99 95 88 84 87 91 93 95 96 98 100 101 101 101 101
75 70 64 54 45 42 40 39 39 39 38 39 40 43 47 51 52 54 55 55 57 61 68 75 80 82 83 85 88 92 95 98 100 103 106 106 104 107 109 106 99 89 80 76 77 79 79 76 74 72 69 69 78 92 101 102 100 99 96 90 84 83 86 90 93 95 97 98 100 103 103 103 107 104
70 63 53 45 40 38 37 36 37 37 37 39 39 40 41 41 42 43 43 44 48 54 61 69 75 80 83 85 87 89 90 93 95 99 104 108 109 108 103 91 78 70 67 67 67 67 65 63 63 64 67 76 90 99 102 100 96 92 87 84 86 90 92 96 100 101 101 100 101 104 105 106 108 106
60 52 46 42 39 37 36 35 35 36 37 39 39 40 41 41 42 43 45 47 50 50 54 62 69 73 75 76 78 81 84 89 92 97 103 106 102 92 78 66 57 54 54 55 56 57 58 60 63 70 80 93 100 101 100 98 93 88 88 92 96 100 102 105 107 107 107 107 107 108 109 106 104 106
55 49 45 42 39 37 37 37 38 39 41 43 44 44 45 47 49 51 53 54 53 55 62 71 74 73 72 72 73 77 83 90 97 100 98 90 77 64 55 50 48 50 51 54 56 59 63 69 76 87 96 100 100 99 98 94 89 90 96 99 101 106 109 110 111 110 111 111 108 107 107 106 106 108
51 47 43 40 38 38 40 41 43 45 46 48 50 51 52 55 58 61 62 65 69 74 82 88 89 88 88 89 90 93 98 103 102 94 81 67 55 50 49 50 53 56 60 65 69 73 78 85 90 95 98 98 98 98 94 91 92 96 100 101 104 110 112 111 111 109 104 101 100 103 106 105 100 93
48 47 44 42 42 44 46 49 52 54 56 58 59 60 61 64 67 71 77 85 94 98 99 101 100 97 96 97 99 101 101 94 83 71 59 52 50 51 55 60 65 69 74 80 85 88 92 95 97 98 99 98 97 93 91 93 97 100 103 106 109 111 111 109 106 101 97 98 101 100 96 88 81 77
57 57 55 53 52 53 57 61 63 64 65 67 68 69 69 72 76 82 89 98 104 105 104 105 105 103 101 100 95 87 78 68 60 54 52 53 58 63 69 75 80 85 90 95 98 99 101 102 103 101 98 94 91 91 94 100 103 105 107 108 107 105 104 102 98 96 97 97 92 85 81 79 80 79
67 69 67 63 62 63 67 71 72 71 72 73 75 74 73 76 83 90 96 101 104 105 104 103 104 104 99 89 76 65 58 54 53 55 60 67 75 82 87 92 96 99 101 102 102 101 100 98 96 94 93 92 94 98 103 106 106 103 99 96 95 96 95 92 89 88 87 84 82 82 85 86 84 77
78 77 71 65 64 65 67 68 68 67 68 70 69 68 67 69 74 80 88 94 98 99 95 88 83 78 70 61 56 54 56 61 66 73 81 87 93 98 101 102 102 101 99 97 94 93 92 91 92 93 95 98 101 102 102 99 94 89 86 86 86 85 82 78 76 76 78 81 85 85 82 76 68 58
92 87 81 77 77 77 78 77 74 71 70 68 66 65 65 66 67 69 74 76 75 72 67 62 59 56 56 58 63 69 76 83 89 94 98 101 103 102 100 97 95 92 91 90 90 91 93 95 97 98 99 99 98 94 88 84 80 80 80 80 76 72 70 70 72 76 79 79 76 68 60 52 44 37
100 97 94 94 94 95 96 96 94 92 91 89 83 75 69 65 64 64 64 64 63 63 64 67 69 72 76 81 86 92 96 98 100 100 100 99 96 93 92 91 90 91 91 93 96 97 99 99 99 98 96 92 88 83 78 77 77 77 75 72 70 69 71 74 76 74 70 62 54 46 39 33 28 25
101 100 99 100 100 100 100 100 100 100 99 95 88 81 76 74 75 76 78 79 82 85 88 91 93 95 96 98 100 101 100 99 98 97 95 93 91 92 93 94 95 96 98 100 100 100 99 98 95 91 87 83 80 78 77 77 76 74 71 71 72 73 73 72 68 61 53 45 37 31 26 23 21 19
101 101 100 100 100 100 101 101 101 100 97 94 91 90 91 93 95 96 97 98 99 99 100 100 100 100 101 100 100 100 99 99 100 98 97 97 97 98 98 99 100 101 100 100 99 98 96 94 90 86 83 81 80 79 80 79 76 73 71 72 72 71 67 60 52 44 37 31 26 22 20 18 17 15
101 101 101 100 99 100 101 100 100 100 98 97 98 99 100 100 100 100 100 100 100 100 100 100 100 100 101 101 100 100 100 101 101 101 101 100 100 100 100 100 100 98 97 97 96 95 94 92 88 86 84 84 85 84 80 76 72 71 72 71 68 62 54 45 37 31 26 23 20 18 16 15 14 14
100 100 101 101 100 100 100 99 99 99 99 99 100 101 100 100 100 100 101 101 100 100 99 99 99 100 100 100 100 101 101 101 101 101 101 101 100 100 99 99 98 97 98 98 97 96 94 91 89 89 90 90 87 80 74 71 71 71 70 64 55 47 39 32 27 23 20 18 16 14 14 13 14 15
100 100 100 100 100 100 100 99 99 100 100 100 101 101 101 101 100 100 100 100 99 99 99 99 100 101 101 100 100 100 100 101 100 100 101 101 100 100 100 101 101 101 102 101 98 94 92 92 94 95 92 86 78 72 71 73 72 67 58 49 40 32 26 22 20 18 16 15 14 13 13 14 14 15
100 100 100 100 100 100 100 100 100 100 100 100 100 100 101 100 100 101 101 100 100 99 99 100 101 101 101 101 100 100 101 101 101 101 101 101 101 102 102 102 103 103 102 99 95 93 95 98 97 92 83 76 73 73 73 69 62 53 44 35 29 24 20 17 15 14 13 12 12 13 14 14 14 14
100 100 101 100 100 100 100 100 100 100 101 100 101 101 100 100 100 100 100 100 101 100 100 100 100 101 102 102 100 101 103 103 102 103 104 104 103 103 102 102 103 102 99 97 98 100 101 97 88 80 75 73 73 71 65 55 47 40 33 27 22 19 16 14 13 12 12 12 13 13 14 13 13 12
102 101 101 101 102 102 101 101 101 100 100 100 100 100 100 101 101 101 100 101 101 101 102 101 100 103 105 104 103 104 106 106 105 106 106 106 105 106 106 104 102 100 101 103 103 99 92 83 77 74 73 71 66 60 52 44 37 31 26 22 19 16 13 12 11 11 12 13 13 13 13 12 11 11
101 100 101 103 104 104 104 105 104 103 103 104 105 103 102 103 103 103 104 105 104 105 105 105 106 108 109 108 108 109 109 110 110 111 111 110 109 107 104 100 99 100 102 99 93 85 79 76 74 72 68 62 55 49 42 36 30 25 21 18 15 13 12 12 12 12 12 13 13 13 12 12 11 10
86 87 89 91 92 93 95 97 97 97 98 100 101 101 102 104 106 107 109 110 109 109 110 109 110 111 112 111 110 110 111 112 112 110 108 105 102 99 99 99 99 96 91 85 80 77 76 73 68 62 57 52 48 42 35 29 24 20 17 15 13 13 12 12 12 13 13 13 12 12 11 11 10 10
78 78 79 79 80 81 83 84 85 86 88 89 90 91 92 94 95 96 98 99 99 100 102 102 102 103 104 104 104 103 103 104 103 102 102 101 101 101 100 96 90 84 81 79 78 74 69 64 58 54 51 47 41 35 28 23 19 16 15 14 13 13 13 14 14 14 13 12 12 11 11 11 10 10
75 76 77 77 78 79 80 81 82 84 85 86 88 88 89 89 89 89 90 90 90 91 93 93 94 95 95 96 96 97 98 100 102 104 104 104 101 96 90 85 81 80 79 77 71 65 61 57 53 50 45 39 32 27 22 19 16 15 13 13 13 14 15 16 15 15 14 13 11 11 10 10 10 10
69 70 71 71 72 73 74 75 75 76 77 78 79 81 82 84 86 87 88 89 90 92 93 94 96 98 99 101 102 103 102 102 102 100 97 93 89 85 82 80 78 76 72 68 63 60 56 53 48 42 36 30 24 20 18 16 14 14 13 13 14 16 16 16 16 15 14 12 11 10 10 10 10 10
65 65 65 65 66 68 70 72 73 73 73 74 75 77 79 82 84 87 90 92 95 97 98 99 102 103 103 102 100 97 94 92 90 88 86 85 83 81 78 75 72 69 66 63 60 55 50 45 39 32 27 22 19 17 15 14 14 14 15 15 16 16 16 16 15 14 13 11 10 10 10 10 10 10
61 61 61 61 62 64 68 72 75 76 76 76 76 77 78 80 82 84 86 87 89 91 91 91 91 90 88 86 84 83 82 82 83 83 82 80 77 74 71 68 66 64 62 58 53 47 41 35 29 25 21 18 16 15 14 14 14 15 16 17 17 17 16 15 14 13 12 12 11 10 10 10 10 9
58 59 60 62 64 66 68 71 73 74 73 73 72 72 72 72 72 73 73 73 74 75 75 75 76 77 78 78 78 79 79 78 78 77 75 72 69 66 63 62 60 56 52 47 42 37 31 26 23 20 18 16 15 14 14 15 15 17 17 17 17 16 15 14 13 12 12 12 11 11 11 10 9 8
Wind_Speed
33 33 33 33 32 32 32 31 30 30 29 30 30 29 28 29 32 33 33 33 34 35 34 33 33 32 30 29 28 26 24 23 22 23 23 24 24 24 24 24 23 22 21 21 21 22 23 23 24 24 24 24 24 23 23 23 24 24 25 25 26 27 29 30 31 31 32 32 34 35 36 38 38 38
32 32 33 33 32 32 31 30 30 29 28 28 28 29 29 31 33 34 34 35 35 35 33 32 32 31 29 28 26 25 24 23 23 23 23 24 24 24 24 24 24 23 22 22 22 22 23 23 23 23 24 24 24 24 25 26 26 27 27 28 29 29 29 30 31 32 33 33 35 36 37 38 39 40
32 32 32 33 32 31 30 30 30 29 28 28 28 30 31 33 34 35 35 36 36 34 32 32 32 30 28 26 25 24 23 22 22 23 23 24 25 25 25 25 25 25 24 23 23 23 23 23 24 24 26 27 28 28 29 29 30 30 30 31 33 33 34 34 34 34 34 35 36 37 38 40 41 43
33 33 33 33 33 32 31 30 29 29 29 29 30 31 33 33 34 34 35 36 35 34 33 32 31 29 27 26 24 22 21 21 22 22 23 25 25 25 26 26 27 27 26 26 26 26 26 26 27 28 30 31 33 34 34 34 34 34 34 35 36 37 38 39 39 39 38 39 39 40 41 42 44 45
35 35 35 34 34 34 33 31 31 30 30 30 32 33 33 33 33 33 34 34 34 34 33 32 30 28 27 26 25 23 22 21 22 23 24 25 26 26 27 28 28 29 29 29 30 30 31 31 32 33 34 36 37 38 39 39 39 38 38 39 40 41 42 43 43 43 43 43 43 43 44 45 46 48
37 37 37 36 36 36 35 33 32 31 31 32 34 34 32 33 33 32 33 34 34 34 34 32 30 28 27 27 27 25 24 23 23 24 25 26 27 28 29 30 31 31 32 32 33 33 34 35 35 36 38 39 40 42 42 43 42 42 41 42 43 44 46 48 48 48 48 47 47 47 48 48 49 50
40 39 38 38 38 38 36 34 33 33 33 34 35 34 33 32 32 32 33 34 34 34 33 32 30 29 29 29 29 28 27 26 25 26 26 27 29 30 31 33 33 34 35 35 35 36 37 37 38 39 40 41 43 44 45 46 45 45 44 45 46 47 49 51 53 53 53 52 51 51 52 52 52 53
42 41 40 40 41 40 38 35 35 35 35 35 35 34 33 33 32 32 33 34 34 33 32 31 31 31 31 30 30 31 30 29 29 28 29 29 30 32 33 34 35 36 37 38 39 39 39 40 41 42 43 43 45 46 47 47 48 48 48 48 49 50 52 55 56 57 57 56 56 55 56 56 56 56
43 42 42 42 42 41 39 38 38 38 37 36 35 35 34 33 32 32 33 34 33 32 31 31 32 32 32 32 32 33 33 33 33 32 32 33 34 35 36 37 38 38 39 40 41 42 43 43 44 45 45 45 46 48 48 49 50 50 51 51 52 53 55 58 60 61 61 60 59 59 59 59 59 58
44 44 43 42 42 41 40 40 40 40 39 37 36 36 35 34 34 34 35 34 33 32 31 32 33 33 34 34 35 35 36 36 36 36 36 36 37 38 39 40 41 41 42 43 44 45 46 47 48 48 48 48 49 50 51 52 53 53 53 54 55 57 59 62 64 64 64 63 63 62 62 62 61 60
45 44 42 41 40 40 40 41 41 40 39 38 37 37 36 36 36 37 37 36 34 33 32 33 34 35 36 37 37 38 38 39 40 40 40 40 40 41 42 43 44 44 45 47 48 49 50 51 52 52 53 52 52 53 54 55 56 56 57 57 58 60 62 65 67 68 67 66 66 66 65 65 63 61
44 42 40 40 40 39 39 40 40 39 39 39 38 37 37 38 40 41 40 38 36 35 34 34 35 36 38 39 40 40 41 42 43 43 43 43 44 44 45 45 47 48 49 50 51 52 53 55 56 57 57 56 56 56 57 58 59 60 61 61 62 63 66 69 71 71 69 69 69 69 68 67 65 62
41 40 40 39 39 38 38 38 37 38 38 38 38 39 40 42 43 43 42 40 38 36 35 36 37 38 40 42 43 43 43 44 45 45 46 46 47 48 48 48 49 51 52 53 54 55 56 57 59 60 60 60 59 60 61 62 63 64 65 65 66 67 70 73 75 74 72 72 72 72 71 70 67 64
41 41 41 41 40 39 39 39 39 40 41 42 43 44 45 45 45 44 43 41 39 37 37 38 39 40 41 43 44 45 45 46 47 48 49 49 50 51 51 51 52 53 54 56 57 58 58 60 61 62 63 63 63 64 64 65 66 67 68 68 68 70 73 77 78 77 75 75 75 75 74 73 70 67
42 42 42 42 41 41 41 42 42 43 44 45 46 46 45 45 45 44 43 41 40 39 40 41 42 43 43 45 46 47 48 49 49 50 51 52 52 54 54 55 55 55 56 58 60 61 61 62 63 65 65 65 66 67 67 68 69 70 70 70 71 74 78 80 81 79 78 78 78 77 77 76 73 71
44 45 44 42 42 42 42 41 41 42 43 43 44 45 45 45 45 44 44 43 42 42 43 44 45 46 46 47 48 49 50 50 51 52 53 54 55 56 57 58 58 58 59 60 62 64 64 65 66 67 67 67 68 69 70 71 71 71 71 72 74 78 82 84 83 82 81 81 81 80 79 78 77 75
48 47 46 45 45 44 43 42 42 42 44 45 45 46 45 46 46 45 45 45 45 46 46 47 48 49 49 49 50 50 51 51 52 53 54 56 57 58 59 60 61 61 62 63 64 66 67 67 68 69 69 70 71 72 72 73 73 73 74 76 79 83 86 86 85 84 84 84 83 82 82 81 80 79
50 49 48 48 47 46 45 45 45 46 47 48 47 47 47 47 47 47 47 48 48 48 49 50 50 51 51 51 51 51 52 52 53 54 56 57 59 60 61 62 62 63 64 65 67 68 69 69 70 71 72 72 73 74 74 75 75 76 78 81 84 87 88 87 87 87 87 87 86 85 84 84 83 83
52 51 50 50 49 48 48 48 49 49 50 49 49 49 49 49 49 49 50 50 50 50 51 52 52 53 53 52 52 53 53 54 55 56 57 59 60 61 62 63 65 66 67 68 68 69 70 71 72 73 74 74 74 75 76 76 77 80 83 86 88 89 89 89 90 90 90 89 88 88 87 87 86 86
53 53 52 52 51 51 51 51 52 52 52 51 51 51 51 52 52 52 51 51 51 52 52 53 54 54 54 54 54 54 55 56 57 58 59 60 61 63 65 66 68 68 69 70 71 71 72 73 73 74 75 75 76 77 78 80 82 85 88 90 91 92 93 93 94 94 93 93 91 91 90 90 90 90
55 55 55 55 55 54 54 54 55 55 55 54 54 54 54 54 54 54 53 53 53 53 54 55 55 55 55 55 56 56 57 58 59 60 61 62 64 66 68 70 70 71 71 72 72 72 73 73 74 74 76 77 78 80 82 85 88 90 92 93 94 95 96 97 98 97 97 96 95 94 93 93 93 93
58 58 58 58 58 58 57 58 58 58 58 57 56 56 56 56 56 56 56 55 55 55 56 57 57 57 57 58 58 59 59 60 61 62 64 66 68 70 71 72 73 72 72 73 73 73 73 74 74 75 77 79 81 83 86 89 91 93 95 96 97 99 100 100 100 99 98 97 96 95 95 95 95 95
62 62 63 63 62 62 61 61 61 60 60 59 58 57 57 57 57 57 58 58 58 58 59 60 60 60 60 61 61 62 62 63 65 67 69 71 72 73 74 74 74 73 73 74 74 74 74 75 76 78 80 82 84 87 90 92 93 95 97 98 100 102 102 102 101 100 99 97 97 96 96 96 96 95
66 67 67 67 66 65 64 63 62 62 61 60 59 58 58 58 58 59 59 60 61 62 63 63 62 62 62 63 64 65 66 68 70 71 73 74 74 75 75 75 75 74 74 75 75 76 76 78 79 81 84 86 88 90 92 93 95 97 99 101 102 103 103 102 101 100 99 98 98 98 97 96 96 96
69 70 71 71 70 68 66 65 64 63 62 61 60 59 59 59 60 60 60 62 63 64 65 65 65 66 66 66 68 70 71 72 73 74 75 75 75 75 75 75 75 75 75 76 77 78 80 82 84 86 88 90 91 93 94 95 97 100 102 103 103 103 102 101 100 99 99 99 99 99 98 98 99 100
72 72 73 73 72 69 66 65 65 64 63 62 61 60 61 61 61 63 63 64 65 66 66 66 67 68 70 71 73 74 74 75 75 75 76 76 75 76 76 76 76 77 78 79 81 82 84 86 88 89 91 93 94 96 97 99 101 103 103 102 101 101 100 99 98 98 99 99 99 100 101 102 103 104
74 74 75 74 72 70 68 66 66 65 64 64 63 63 63 63 64 65 66 67 67 68 69 70 71 72 74 75 75 75 75 76 76 76 76 76 76 77 78 79 80 81 82 84 85 87 88 89 91 92 94 96 98 100 102 103 103 103 101 100 99 98 98 97 97 97 99 100 102 103 103 103 103 103
72 72 73 73 71 70 69 67 66 65 64 65 65 64 64 65 65 66 67 69 70 71 73 74 75 75 75 75 75 75 75 76 77 77 78 79 80 81 82 84 85 86 87 88 89 90 92 93 94 96 98 100 102 103 104 103 102 101 100 99 98 98 97 97 98 99 100 101 102 102 102 102 102 101
71 71 71 71 70 69 68 68 67 66 66 67 67 68 68 68 68 69 70 71 73 73 74 74 74 75 75 75 76 76 77 79 80 82 83 84 85 87 88 89 89 90 91 92 93 94 96 98 99 101 103 104 104 104 103 102 101 100 100 100 99 99 99 100 100 101 101 101 101 101 101 100 98 97
71 70 70 70 69 69 69 70 70 70 70 71 72 72 72 72 71 71 71 72 73 73 73 74 75 76 77 79 80 81 83 84 85 87 88 89 91 91 92 92 93 94 95 96 98 99 101 103 104 105 105 104 104 103 102 102 102 102 101 101 101 101 101 102 102 102 101 101 101 100 98 97 94 92
73 73 72 73 72 72 72 73 74 74 74 74 74 74 73 72 72 72 72 73 74 76 77 78 80 81 83 84 85 87 88 89 90 91 93 93 94 94 95 95 97 98 99 101 103 104 105 106 106 105 105 104 103 103 103 103 104 104 103 103 103 103 102 102 102 101 101 100 99 97 94 92 90 87
75 75 76 76 76 75 75 75 76 76 75 74 74 74 74 74 75 76 77 79 80 82 83 84 85 86 87 89 90 91 92 93 94 95 96 96 96 97 98 100 101 102 104 105 106 106 106 106 105 105 104 104 104 105 105 105 105 104 104 104 104 103 103 102 101 100 99 98 96 93 90 87 84 81
75 76 77 78 78 77 77 76 76 75 75 75 75 76 77 79 81 82 84 86 87 88 88 89 89 90 91 92 93 94 95 96 97 98 98 99 100 101 103 104 105 106 106 107 106 106 105 105 105 105 105 105 106 107 106 106 105 105 105 105 104 103 102 100 99 97 96 94 91 88 85 82 78 76
76 76 77 78 79 78 78 78 78 78 78 79 81 83 85 87 88 89 91 92 92 92 92 93 94 95 96 97 97 98 99 99 100 101 101 103 104 105 106 106 107 107 107 106 106 105 105 105 105 106 107 107 108 107 107 106 106 106 105 104 103 102 99 97 94 92 90 88 86 83 80 77 74 72
81 81 82 82 83 83 84 84 85 85 86 87 88 90 91 93 94 96 97 97 97 97 97 97 98 99 99 100 100 101 101 102 102 103 104 105 106 106 107 107 106 106 106 105 105 105 106 106 107 108 108 108 107 107 107 106 106 105 104 103 101 99 96 93 90 87 85 82 79 77 75 73 71 69
86 87 87 88 89 89 90 90 91 92 93 93 94 95 96 97 98 99 100 100 100 100 100 100 101 101 102 102 103 103 104 104 105 105 106 106 106 106 106 105 105 105 105 105 106 107 108 109 109 109 108 107 107 107 107 106 105 104 102 101 98 96 93 90 86 82 79 76 74 72 71 69 68 66
89 90 91 91 92 93 93 94 94 95 96 97 98 99 99 100 100 101 101 101 101 101 102 102 102 103 104 104 105 105 105 106 105 105 105 105 105 104 104 105 105 106 106 107 108 109 109 109 108 108 107 107 107 106 106 105 103 102 100 98 95 92 89 85 81 77 74 72 70 69 68 66 65 63
93 94 94 94 95 95 96 96 96 96 97 97 98 98 99 99 100 100 100 101 101 102 103 103 104 104 104 104 104 104 104 104 104 104 104 104 104 104 105 106 107 108 108 109 109 109 109 108 108 107 107 107 106 106 105 104 102 99 96 94 91 88 84 81 77 74 71 69 67 66 65 64 63 62
93 94 94 95 96 96 97 97 97 97 97 97 97 98 98 99 99 100 100 101 102 102 103 103 103 103 103 103 103 103 103 104 104 104 104 105 105 106 107 108 109 109 109 108 108 108 108 108 107 107 106 106 106 105 104 102 99 95 92 89 85 82 79 76 74 72 69 67 65 63 62 62 61 60
91 91 92 93 94 95 95 96 97 97 97 97 97 98 99 99 100 100 101 101 102 102 102 103 103 103 103 103 103 104 104 104 105 105 106 107 108 108 109 109 109 108 108 108 108 108 108 107 107 107 106 106 105 103 101 98 94 90 86 83 80 77 75 73 71 69 68 66 64 62 61 60 59 57
90 90 90 91 91 92 93 94 95 95 96 96 96 97 98 98 99 100 100 101 101 102 102 102 102 103 103 104 104 104 105 105 106 106 107 108 108 109 109 109 108 108 108 108 108 108 107 107 107 107 106 104 102 99 96 92 88 84 81 77 74 72 71 70 69 67 66 65 63 61 59 58 56 54
91 91 91 91 91 92 93 93 94 95 95 96 96 96 97 98 98 99 100 100 101 101 101 102 102 103 104 104 105 105 106 106 106 107 107 108 108 108 108 108 108 108 108 108 108 108 108 107 106 105 103 100 97 93 89 85 82 78 75 72 70 68 67 66 66 65 64 63 61 59 57 55 53 52
92 92 92 92 92 93 93 94 94 95 95 96 96 96 97 98 98 99 100 100 101 101 102 103 103 104 105 105 106 106 106 106 106 107 107 108 108 109 109 109 108 108 108 109 108 108 107 106 104 101 98 94 90 86 83 79 76 73 71 69 67 65 64 63 63 62 62 61 60 58 55 53 51 50
94 94 94 94 94 94 94 94 94 95 95 96 96 97 97 98 99 100 100 101 101 102 103 103 104 104 105 105 106 106 106 106 107 108 108 109 109 109 108 108 108 109 109 108 107 106 105 102 99 96 92 88 84 80 77 74 71 68 66 65 64 63 62 61 60 60 59 59 58 56 54 51 49 48
94 95 95 95 95 95 95 95 95 96 96 97 97 98 98 99 100 100 101 101 102 102 103 103 104 105 105 106 107 107 107 108 108 108 109 109 109 108 108 108 108 108 107 106 104 102 99 96 92 88 84 81 78 74 71 69 66 64 63 62 61 61 61 60 59 58 57 56 55 54 52 51 49 46
Wind_Direction
282 284 287 288 287 287 288 290 290 288 285 283 283 284 286 288 287 287 289 289 290 294 298 299 300 301 299 298 297 296 294 290 284 282 284 286 287 288 292 296 296 297 297 295 294 293 293 292 293 294 296 299 301 303 306 309 311 315 319 321 319 316 310 305 301 298 295 293 292 291 291 291 290 289
283 285 288 289 287 286 288 289 288 285 281 280 282 285 287 288 287 287 288 288 290 294 295 296 298 298 296 293 292 292 292 288 284 283 283 283 284 287 292 295 295 296 296 295 294 293 292 292 292 292 295 297 300 302 304 308 311 314 319 321 322 321 317 310 304 299 296 294 292 291 290 290 289 288
282 286 289 289 287 286 288 289 285 280 278 280 284 287 288 287 286 286 286 288 291 293 293 295 297 295 291 287 286 287 288 286 284 282 281 281 283 287 291 293 293 294 293 292 291 292 292 292 292 292 294 296 298 300 304 307 310 313 317 319 320 320 318 315 311 306 301 298 295 293 292 291 291 290
281 285 287 287 285 285 288 288 281 277 278 282 287 289 287 286 285 285 286 288 291 291 291 294 294 291 286 282 279 282 286 286 285 283 281 281 283 286 289 290 291 291 290 288 288 290 291 291 291 292 294 296 299 301 304 306 308 311 314 316 316 316 315 314 313 309 305 301 299 296 294 293 291 290
280 284 285 284 282 283 288 286 278 276 279 284 289 289 287 286 287 287 288 289 290 290 290 292 290 286 282 277 274 279 284 284 284 282 282 282 282 283 285 287 288 289 289 287 286 287 288 290 291 293 295 297 299 300 302 304 306 308 310 311 311 312 313 313 312 309 306 303 301 299 297 295 292 290
279 281 282 281 280 283 287 283 275 275 279 284 289 289 287 287 288 289 290 290 289 289 290 290 287 281 278 274 271 275 280 281 280 281 281 281 282 283 284 285 286 287 288 289 288 288 288 290 291 293 294 295 296 297 298 299 302 304 305 306 307 309 311 311 311 309 306 304 303 301 300 298 295 293
277 279 280 279 280 283 286 281 273 273 277 282 287 289 287 288 288 290 291 291 290 290 289 288 284 278 275 273 271 272 276 278 279 280 281 282 283 283 283 284 285 286 288 289 290 290 290 290 290 291 291 292 293 293 293 295 297 299 301 302 304 306 308 309 309 308 307 305 304 303 301 300 298 295
277 278 278 278 280 282 283 278 271 271 275 280 286 288 288 287 287 290 293 293 292 290 288 286 282 276 274 274 273 273 274 277 279 280 281 282 283 283 283 284 286 288 289 290 290 290 290 289 288 288 288 290 291 292 292 293 294 295 297 299 301 303 306 307 308 308 307 305 304 304 303 302 299 297
277 278 278 278 279 280 279 275 270 270 274 279 284 287 287 286 286 290 294 295 294 291 287 284 279 274 273 274 276 275 275 276 278 279 281 282 283 284 284 286 287 288 289 289 289 289 289 288 287 286 287 289 291 293 293 292 292 293 294 296 298 301 304 306 307 307 306 305 304 304 303 302 300 298
278 278 278 277 277 277 275 272 270 270 274 278 282 284 285 284 285 290 293 294 294 291 287 282 278 274 273 275 278 277 276 277 278 280 282 284 284 285 286 286 287 288 288 288 288 288 288 287 287 287 288 290 291 292 292 292 292 292 292 293 296 299 302 305 306 307 306 305 304 303 303 302 300 298
277 277 277 276 276 276 274 272 270 272 275 278 280 281 282 281 284 288 290 291 292 290 287 282 278 274 275 277 279 279 279 279 279 281 283 284 285 285 286 286 287 287 287 287 287 287 288 288 289 289 289 290 291 292 292 292 292 291 291 291 293 296 300 303 305 306 305 304 304 303 302 302 301 300
274 275 276 277 277 277 276 274 274 275 276 278 279 279 280 281 283 286 287 287 288 288 286 282 278 276 277 279 280 281 281 281 282 283 283 283 284 285 286 287 287 287 287 287 287 288 288 289 289 290 290 291 292 293 293 292 292 291 291 291 292 295 299 303 305 305 305 304 303 303 302 302 301 300
273 275 277 278 278 277 276 276 275 276 276 277 278 279 281 282 284 285 285 285 286 285 284 281 278 278 278 279 281 282 282 283 283 283 283 283 283 284 285 286 287 287 287 287 288 288 288 288 289 290 290 292 292 293 292 292 292 292 291 291 291 294 299 302 304 305 304 303 303 303 302 302 301 301
273 275 277 278 277 276 276 275 275 275 276 277 279 281 283 284 284 284 284 284 283 282 280 279 278 278 279 279 280 281 282 283 283 283 283 283 283 283 284 286 287 288 288 288 288 289 288 289 289 290 291 292 292 292 292 292 292 292 291 291 291 294 298 302 303 304 303 303 303 303 302 302 302 302
274 277 279 279 279 279 278 278 278 278 279 281 282 283 284 284 284 284 283 282 281 280 279 279 279 280 280 280 281 282 282 283 283 284 284 284 284 283 284 285 287 288 288 288 288 289 289 289 289 290 291 292 292 292 292 292 291 291 291 291 292 295 299 301 302 302 302 303 303 303 302 302 302 303
276 279 279 279 280 280 281 282 283 284 285 285 285 285 285 284 284 283 282 282 280 280 279 280 280 281 282 282 282 283 283 284 284 285 284 284 284 284 284 286 287 288 289 289 289 289 289 290 290 290 291 291 291 292 292 291 291 291 290 291 292 296 299 301 301 302 302 302 303 302 302 302 302 302
277 279 278 279 280 281 282 284 286 287 287 287 286 285 284 284 283 283 282 281 280 280 280 280 281 282 283 283 283 283 284 284 284 284 283 283 283 284 285 286 288 289 289 289 289 289 289 290 290 290 291 291 292 292 291 291 291 290 290 291 294 297 299 300 301 301 302 302 303 302 302 302 302 301
277 278 278 279 280 281 283 285 287 288 288 288 286 285 284 283 282 282 281 281 281 282 282 282 283 283 283 283 283 283 283 283 283 283 283 283 283 284 285 287 288 289 290 290 290 290 290 290 290 291 291 292 292 291 291 290 290 290 291 293 295 297 299 300 300 301 302 302 302 302 302 301 301 300
276 277 277 279 280 282 284 286 287 288 289 288 286 285 284 283 282 282 282 283 284 284 283 283 283 283 283 283 283 282 282 282 282 282 282 283 284 285 286 288 289 290 290 290 290 290 290 291 291 291 291 291 290 290 289 289 289 290 292 294 296 298 299 300 301 302 302 302 302 301 301 300 299 299
275 276 278 279 281 282 284 286 287 288 288 287 285 284 283 283 283 283 284 285 285 284 283 282 282 282 281 281 281 281 282 282 282 282 283 283 284 286 287 288 289 290 290 290 290 290 290 291 291 290 290 290 289 289 289 290 292 293 295 297 299 300 301 302 303 303 303 302 302 301 300 299 299 298
275 277 278 280 281 282 284 285 286 287 286 285 283 283 283 283 284 284 285 285 285 284 283 282 280 280 279 280 280 280 281 281 281 282 283 283 285 286 287 289 290 290 290 290 289 289 289 289 289 289 289 289 289 290 291 293 294 296 297 299 300 301 302 302 302 302 302 302 301 300 300 299 299 298
275 277 279 280 281 282 283 285 285 285 284 283 282 282 283 283 283 284 284 284 284 283 282 280 279 279 279 280 280 281 281 281 282 283 284 285 286 288 289 289 290 290 290 289 288 288 288 287 287 287 287 288 289 291 293 294 296 297 298 299 300 301 301 301 302 301 301 300 300 299 299 298 297 296
276 277 278 279 280 281 283 284 284 284 283 282 281 282 282 282 282 282 283 283 283 282 280 279 279 279 280 281 282 282 283 283 284 285 286 287 288 289 290 290 290 290 290 289 288 288 287 287 287 287 288 289 290 292 293 295 296 297 298 299 300 300 301 301 301 300 300 299 299 298 298 297 296 295
277 278 278 279 281 282 283 284 284 283 282 281 281 281 281 280 280 280 280 280 280 279 278 278 278 278 279 280 281 282 283 283 284 285 287 288 289 289 290 290 290 290 289 288 287 287 287 287 288 288 289 290 291 292 293 294 295 296 297 298 299 300 300 300 300 299 299 299 298 297 297 297 297 297
277 277 279 280 281 282 283 283 282 281 280 279 279 279 279 278 278 277 277 276 275 275 276 276 277 278 279 280 280 281 282 283 284 286 287 288 289 289 289 290 289 289 289 288 288 288 288 288 289 289 290 291 292 292 293 294 295 296 297 298 299 299 299 299 299 298 298 298 297 298 299 299 300 299
276 276 277 279 280 281 280 280 279 279 278 277 277 277 277 276 275 274 274 273 272 273 273 274 275 276 277 279 280 281 283 284 285 287 288 288 288 289 289 290 290 289 289 289 289 289 289 289 290 290 291 292 292 293 294 295 296 297 297 298 298 298 298 298 297 297 298 298 299 300 300 300 299 297
277 277 278 279 280 280 279 277 277 276 276 275 274 274 274 274 273 272 272 271 271 271 272 273 274 276 277 279 280 282 283 285 286 287 288 289 289 289 290 290 290 290 290 290 290 290 290 290 291 291 292 293 294 295 296 296 297 298 298 298 298 298 297 297 298 299 300 300 300 299 298 297 296 296
277 278 280 281 282 282 282 280 279 278 276 275 275 275 275 274 273 272 271 272 272 273 275 276 277 278 280 281 282 284 285 286 288 288 289 289 290 290 290 290 290 290 290 291 291 291 292 292 293 293 294 295 296 296 297 298 298 299 299 298 298 298 299 300 301 301 300 299 298 297 297 296 295 295
277 278 279 281 281 282 282 281 280 279 278 277 277 277 277 277 277 276 276 276 277 278 279 280 281 282 284 285 286 287 288 288 288 289 289 289 290 290 291 291 291 291 292 292 293 293 293 294 294 295 296 296 297 298 298 299 299 299 299 299 300 301 301 301 301 300 299 298 297 297 296 295 295 295
276 276 277 278 279 279 279 279 278 278 277 277 278 280 281 282 282 281 281 281 282 282 282 283 284 285 286 287 287 287 288 288 289 289 290 291 291 292 292 292 293 293 293 293 294 294 294 295 296 297 297 298 298 299 299 299 300 300 301 301 302 302 302 301 301 300 299 298 297 297 297 297 297 296
273 273 273 274 275 276 276 276 277 277 278 279 280 281 282 283 282 282 282 282 283 283 283 284 285 285 286 286 287 287 288 289 290 290 291 292 292 292 292 292 293 293 293 294 294 295 295 296 297 298 298 298 299 299 300 300 301 301 302 302 302 302 302 301 301 300 299 298 298 298 298 298 297 297
271 271 272 273 274 274 274 274 275 276 277 278 279 279 279 280 280 281 281 281 282 282 283 284 284 285 285 286 287 288 288 289 290 290 290 291 291 291 291 292 292 293 293 294 295 296 297 297 297 298 298 299 300 300 301 301 302 302 303 303 303 302 302 301 300 300 299 299 299 299 299 298 297 297
269 270 271 272 273 273 273 274 275 275 276 276 276 276 277 277 278 279 280 281 281 282 282 283 283 284 284 285 286 287 287 288 288 289 289 289 290 290 291 292 293 293 294 295 296 296 297 297 298 298 299 299 300 301 301 302 303 303 303 303 303 302 301 300 300 300 300 300 300 299 299 298 297 297
266 267 268 269 271 271 272 273 273 273 273 273 274 274 276 277 278 279 280 281 281 281 282 282 283 283 284 285 286 286 287 288 288 288 289 289 290 291 292 292 293 294 294 295 296 296 297 297 298 298 299 300 300 301 302 303 303 303 303 303 302 301 301 301 301 301 301 300 300 299 298 298 297 297
265 265 266 267 268 270 270 271 272 272 272 273 273 274 275 277 278 280 281 281 282 282 283 283 284 284 285 286 286 287 287 287 288 288 289 289 290 291 292 292 293 294 294 295 296 296 297 298 298 299 299 300 301 302 303 303 304 304 303 303 302 302 302 302 302 302 301 300 299 298 298 298 298 297
264 265 265 266 268 268 269 270 271 271 272 272 273 274 275 276 277 278 279 280 281 282 282 283 283 284 284 285 286 286 287 287 288 288 289 289 290 291 292 292 293 293 294 295 296 297 297 298 298 299 300 301 302 303 303 304 304 304 303 303 303 303 303 303 302 301 301 300 299 298 298 298 297 297
263 264 265 266 267 267 268 269 269 270 271 271 272 273 274 275 276 277 278 279 279 280 281 282 282 283 284 284 285 286 287 287 288 288 289 290 290 291 292 292 293 294 295 295 296 296 297 298 299 300 301 302 303 304 304 304 304 304 304 304 303 303 303 302 302 301 300 300 299 299 299 298 298 297
264 265 266 267 268 269 270 270 271 271 272 273 273 274 275 276 277 278 278 279 280 280 281 282 282 283 284 285 285 286 286 287 287 288 289 289 290 291 291 292 293 294 294 295 296 296 297 299 300 301 302 303 304 304 304 304 304 304 304 304 303 303 302 302 301 301 300 300 300 299 299 299 299 298
265 266 266 267 268 269 270 271 272 273 273 274 274 275 276 276 277 278 278 279 280 280 281 282 283 283 284 284 285 285 286 286 287 288 289 289 290 291 291 292 293 293 294 295 296 297 299 300 301 302 303 304 304 304 304 304 304 304 304 303 303 302 302 301 301 301 301 301 300 300 300 299 299 298
265 265 266 267 268 268 269 270 271 272 272 273 274 274 275 276 276 277 278 278 279 280 280 281 282 282 283 283 284 285 285 286 287 288 289 289 290 290 291 292 293 294 295 296 297 299 300 301 302 303 304 304 304 304 304 303 303 303 303 302 302 301 301 301 301 301 301 301 301 301 301 300 299 298
264 265 265 266 267 267 268 269 269 270 271 271 272 273 274 274 275 276 276 277 278 279 279 280 281 282 282 283 284 285 285 286 287 287 288 289 289 290 291 292 294 295 296 297 299 300 301 302 303 303 303 303 303 303 303 303 303 302 302 301 301 301 301 301 301 301 301 301 301 301 301 300 299 298
265 265 266 266 267 268 268 269 269 270 270 271 272 272 273 274 275 276 276 277 278 279 280 281 281 282 283 283 284 284 285 285 286 287 288 288 290 291 292 293 295 296 297 299 300 301 302 302 303 303 303 302 302 302 302 302 302 301 301 301 301 300 300 300 300 301 301 301 301 301 301 300 299 298
266 266 267 268 269 269 269 270 270 271 271 272 272 273 274 274 275 276 277 277 278 279 280 280 281 281 282 282 283 284 284 285 286 287 288 290 291 292 293 295 296 297 298 299 300 301 301 302 302 302 302 301 301 301 301 301 301 301 301 301 300 300 300 300 300 301 301 301 301 301 301 300 299 299
267 268 268 269 269 270 270 270 271 271 271 272 272 273 273 274 274 275 276 276 277 277 278 279 280 280 281 282 283 285 286 287 288 289 290 291 292 293 294 296 297 298 298 299 300 301 301 301 301 301 301 300 300 300 300 300 300 300 300 300 300 300 301 301 301 301 301 301 301 301 301 300 299 299
267 268 268 269 269 270 270 270 271 271 271 272 272 273 273 273 274 275 275 276 277 278 279 280 281 282 283 284 285 286 287 288 289 289 290 292 293 294 295 296 297 298 298 299 300 300 300 300 300 300 300 300 300 300 300 300 300 300 300 300 301 301 301 302 302 301 301 301 301 301 301 300 300 299